Time,TemperatureF,DewpointF,PressureIn,WindDirection,WindDirectionDegrees,WindSpeedMPH,WindSpeedGustMPH,Humidity,HourlyPrecipIn,Conditions,Clouds,dailyrainin,SoftwareType,DateUTC
2013-03-16 07:22:00,64.0,56.0,30.08,ENE,74,1.0,7.0,74,0.00,,,0.00,,2013-03-16 13:22:00,
2013-03-16 07:32:00,65.0,56.0,30.08,ENE,71,1.0,6.0,73,0.00,,,0.00,,2013-03-16 13:32:00,
2013-03-16 07:42:00,65.0,56.0,30.08,ENE,71,1.0,6.0,73,0.00,,,0.00,,2013-03-16 13:42:00,
2013-03-16 07:52:00,66.0,57.0,30.08,ENE,77,0.0,8.0,73,0.00,,,0.00,,2013-03-16 13:52:00,
2013-03-16 08:02:00,67.0,57.0,30.08,NE,51,3.0,8.0,71,0.00,,,0.00,,2013-03-16 14:02:00,
2013-03-16 08:12:00,67.0,57.0,30.08,NE,51,3.0,8.0,71,0.00,,,0.00,,2013-03-16 14:12:00,
2013-03-16 08:22:00,67.0,57.0,30.09,NE,55,2.0,8.0,71,0.00,,,0.00,,2013-03-16 14:22:00,
2013-03-16 08:32:00,68.0,58.0,30.09,East,79,0.0,9.0,71,0.00,,,0.00,,2013-03-16 14:32:00,
2013-03-16 08:42:00,68.0,58.0,30.09,East,79,0.0,9.0,71,0.00,,,0.00,,2013-03-16 14:42:00,
2013-03-16 08:52:00,69.0,56.0,30.09,East,91,7.0,18.0,63,0.00,,,0.00,,2013-03-16 14:52:00,
2013-03-16 09:02:00,70.0,56.0,30.09,East,101,6.0,15.0,62,0.00,,,0.00,,2013-03-16 15:02:00,
2013-03-16 09:12:00,70.0,56.0,30.09,East,101,6.0,15.0,62,0.00,,,0.00,,2013-03-16 15:12:00,
2013-03-16 09:22:00,71.0,55.0,30.09,ESE,117,11.0,20.0,57,0.00,,,0.00,,2013-03-16 15:22:00,
2013-03-16 09:33:00,71.0,56.0,30.09,SE,126,8.0,18.0,59,0.00,,,0.00,,2013-03-16 15:33:00,
2013-03-16 09:43:00,71.0,56.0,30.09,SE,126,8.0,18.0,59,0.00,,,0.00,,2013-03-16 15:43:00,
2013-03-16 09:52:00,72.0,56.0,30.09,ESE,103,8.0,14.0,58,0.00,,,0.00,,2013-03-16 15:52:00,
2013-03-16 10:03:00,72.0,56.0,30.09,ESE,115,8.0,18.0,57,0.00,,,0.00,,2013-03-16 16:03:00,
2013-03-16 10:12:00,72.0,56.0,30.09,ESE,115,8.0,18.0,57,0.00,,,0.00,,2013-03-16 16:12:00,
2013-03-16 10:22:00,72.0,57.0,30.09,ESE,119,7.0,14.0,59,0.00,,,0.00,,2013-03-16 16:22:00,
2013-03-16 10:33:00,73.0,57.0,30.09,SE,131,5.0,14.0,58,0.00,,,0.00,,2013-03-16 16:33:00,
2013-03-16 10:42:00,73.0,57.0,30.09,SE,131,5.0,14.0,58,0.00,,,0.00,,2013-03-16 16:42:00,
2013-03-16 10:52:00,74.0,56.0,30.09,East,94,10.0,15.0,53,0.00,,,0.00,,2013-03-16 16:52:00,
2013-03-16 11:03:00,74.0,55.0,30.08,ENE,75,10.0,18.0,52,0.00,,,0.00,,2013-03-16 17:03:00,
2013-03-16 11:12:00,74.0,55.0,30.08,ENE,75,10.0,18.0,52,0.00,,,0.00,,2013-03-16 17:12:00,
2013-03-16 11:23:00,74.0,55.0,30.08,ESE,118,10.0,16.0,52,0.00,,,0.00,,2013-03-16 17:23:00,
2013-03-16 11:32:00,75.0,57.0,30.08,ESE,105,7.0,19.0,53,0.00,,,0.00,,2013-03-16 17:32:00,
2013-03-16 11:42:00,75.0,57.0,30.08,ESE,105,7.0,19.0,53,0.00,,,0.00,,2013-03-16 17:42:00,
2013-03-16 11:52:00,75.0,57.0,30.07,ESE,103,11.0,16.0,53,0.00,,,0.00,,2013-03-16 17:52:00,
2013-03-16 12:02:00,76.0,58.0,30.06,ESE,105,9.0,15.0,54,0.00,,,0.00,,2013-03-16 18:02:00,
2013-03-16 12:13:00,76.0,58.0,30.06,ESE,105,9.0,15.0,54,0.00,,,0.00,,2013-03-16 18:13:00,
2013-03-16 12:22:00,75.0,58.0,30.06,ESE,119,8.0,20.0,55,0.00,,,0.00,,2013-03-16 18:22:00,
2013-03-16 12:33:00,75.0,59.0,30.05,ESE,115,11.0,19.0,57,0.00,,,0.00,,2013-03-16 18:33:00,
2013-03-16 12:42:00,75.0,59.0,30.05,ESE,115,11.0,19.0,57,0.00,,,0.00,,2013-03-16 18:42:00,
2013-03-16 12:52:00,76.0,59.0,30.04,ESE,113,7.0,14.0,55,0.00,,,0.00,,2013-03-16 18:52:00,
2013-03-16 13:02:00,77.0,61.0,30.03,East,95,2.0,14.0,57,0.00,,,0.00,,2013-03-16 19:02:00,
2013-03-16 13:12:00,77.0,61.0,30.03,East,95,2.0,14.0,57,0.00,,,0.00,,2013-03-16 19:12:00,
2013-03-16 13:22:00,76.0,61.0,30.03,ENE,73,4.0,10.0,59,0.00,,,0.00,,2013-03-16 19:22:00,
2013-03-16 13:32:00,76.0,62.0,30.02,East,90,5.0,15.0,62,0.00,,,0.00,,2013-03-16 19:32:00,
2013-03-16 13:42:00,76.0,62.0,30.02,East,90,5.0,15.0,62,0.00,,,0.00,,2013-03-16 19:42:00,
2013-03-16 13:52:00,75.0,61.0,30.02,SE,138,6.0,14.0,61,0.00,,,0.00,,2013-03-16 19:52:00,
2013-03-16 14:02:00,75.0,61.0,30.01,East,98,9.0,19.0,62,0.00,,,0.00,,2013-03-16 20:02:00,
2013-03-16 14:12:00,75.0,61.0,30.01,East,98,9.0,19.0,62,0.00,,,0.00,,2013-03-16 20:12:00,
2013-03-16 14:22:00,76.0,61.0,30.01,SE,146,9.0,16.0,60,0.00,,,0.00,,2013-03-16 20:22:00,
2013-03-16 14:32:00,76.0,62.0,30.00,ESE,116,8.0,18.0,61,0.00,,,0.00,,2013-03-16 20:32:00,
2013-03-16 14:42:00,76.0,62.0,30.00,ESE,116,8.0,18.0,61,0.00,,,0.00,,2013-03-16 20:42:00,
2013-03-16 14:52:00,75.0,61.0,29.98,East,97,4.0,16.0,62,0.00,,,0.00,,2013-03-16 20:52:00,
2013-03-16 15:02:00,76.0,62.0,29.98,East,82,5.0,20.0,61,0.00,,,0.00,,2013-03-16 21:02:00,
2013-03-16 15:12:00,76.0,62.0,29.98,East,82,5.0,20.0,61,0.00,,,0.00,,2013-03-16 21:12:00,
2013-03-16 15:22:00,77.0,62.0,29.97,ESE,106,3.0,16.0,60,0.00,,,0.00,,2013-03-16 21:22:00,
2013-03-16 15:33:00,76.0,62.0,29.97,East,84,10.0,18.0,61,0.00,,,0.00,,2013-03-16 21:33:00,
2013-03-16 15:43:00,76.0,62.0,29.97,East,84,10.0,18.0,61,0.00,,,0.00,,2013-03-16 21:43:00,
2013-03-16 15:52:00,76.0,62.0,29.97,East,98,9.0,18.0,62,0.00,,,0.00,,2013-03-16 21:52:00,
2013-03-16 16:03:00,75.0,61.0,29.97,East,91,9.0,21.0,62,0.00,,,0.00,,2013-03-16 22:03:00,
2013-03-16 16:12:00,75.0,61.0,29.97,East,91,9.0,21.0,62,0.00,,,0.00,,2013-03-16 22:12:00,
2013-03-16 16:22:00,75.0,61.0,29.97,ESE,119,8.0,19.0,62,0.00,,,0.00,,2013-03-16 22:22:00,
2013-03-16 16:33:00,74.0,61.0,29.98,East,98,5.0,16.0,64,0.00,,,0.00,,2013-03-16 22:33:00,
2013-03-16 16:42:00,74.0,61.0,29.98,East,98,5.0,16.0,64,0.00,,,0.00,,2013-03-16 22:42:00,
2013-03-16 16:52:00,74.0,62.0,29.98,East,90,6.0,15.0,66,0.00,,,0.00,,2013-03-16 22:52:00,
2013-03-16 17:02:00,73.0,61.0,29.98,East,101,8.0,18.0,67,0.00,,,0.00,,2013-03-16 23:02:00,
2013-03-16 17:13:00,73.0,61.0,29.98,East,101,8.0,18.0,67,0.00,,,0.00,,2013-03-16 23:13:00,
2013-03-16 17:22:00,73.0,62.0,29.99,ENE,64,3.0,16.0,69,0.00,,,0.00,,2013-03-16 23:22:00,
2013-03-16 17:33:00,73.0,62.0,29.99,ENE,70,8.0,13.0,69,0.00,,,0.00,,2013-03-16 23:33:00,
2013-03-16 17:42:00,73.0,62.0,29.99,ENE,70,8.0,13.0,69,0.00,,,0.00,,2013-03-16 23:42:00,
2013-03-16 17:52:00,72.0,62.0,29.99,East,98,8.0,15.0,70,0.00,,,0.00,,2013-03-16 23:52:00,
2013-03-16 18:02:00,71.0,62.0,29.99,ESE,102,4.0,15.0,72,0.00,,,0.00,,2013-03-17 00:02:00,
2013-03-16 18:12:00,71.0,62.0,29.99,ESE,102,4.0,15.0,72,0.00,,,0.00,,2013-03-17 00:12:00,
2013-03-16 18:22:00,71.0,62.0,30.00,ESE,112,5.0,12.0,73,0.00,,,0.00,,2013-03-17 00:22:00,
2013-03-16 18:32:00,71.0,62.0,30.00,East,99,0.0,0.0,74,0.00,,,0.00,,2013-03-17 00:32:00,
2013-03-16 18:42:00,71.0,62.0,30.00,East,99,0.0,0.0,74,0.00,,,0.00,,2013-03-17 00:42:00,
2013-03-16 18:52:00,70.0,62.0,30.00,ESE,110,0.0,8.0,75,0.00,,,0.00,,2013-03-17 00:52:00,
2013-03-16 19:02:00,70.0,62.0,30.00,East,98,2.0,9.0,76,0.00,,,0.00,,2013-03-17 01:02:00,
2013-03-16 19:12:00,70.0,62.0,30.00,East,98,2.0,9.0,76,0.00,,,0.00,,2013-03-17 01:12:00,
2013-03-16 19:22:00,70.0,62.0,30.01,ESE,109,1.0,7.0,76,0.00,,,0.00,,2013-03-17 01:22:00,
2013-03-16 19:32:00,70.0,62.0,30.01,East,95,0.0,6.0,77,0.00,,,0.00,,2013-03-17 01:32:00,
2013-03-16 19:42:00,70.0,62.0,30.01,East,95,0.0,6.0,77,0.00,,,0.00,,2013-03-17 01:42:00,
2013-03-16 19:52:00,69.0,61.0,30.01,East,96,1.0,8.0,77,0.00,,,0.00,,2013-03-17 01:52:00,
2013-03-16 20:02:00,69.0,62.0,30.02,ENE,71,3.0,9.0,78,0.00,,,0.00,,2013-03-17 02:02:00,
2013-03-16 20:13:00,69.0,62.0,30.02,ENE,71,3.0,9.0,78,0.00,,,0.00,,2013-03-17 02:13:00,
2013-03-16 20:22:00,69.0,61.0,30.02,ESE,110,3.0,7.0,77,0.00,,,0.00,,2013-03-17 02:22:00,
2013-03-16 20:33:00,69.0,62.0,30.03,ESE,105,1.0,9.0,78,0.00,,,0.00,,2013-03-17 02:33:00,
2013-03-16 20:42:00,69.0,62.0,30.03,ESE,105,1.0,9.0,78,0.00,,,0.00,,2013-03-17 02:42:00,
2013-03-16 20:52:00,69.0,63.0,30.03,SE,134,7.0,14.0,80,0.00,,,0.00,,2013-03-17 02:52:00,
2013-03-16 21:02:00,69.0,63.0,30.03,East,84,5.0,11.0,80,0.00,,,0.00,,2013-03-17 03:02:00,
2013-03-16 21:12:00,69.0,63.0,30.03,East,84,5.0,11.0,80,0.00,,,0.00,,2013-03-17 03:12:00,
2013-03-16 21:22:00,69.0,63.0,30.03,East,92,1.0,6.0,80,0.00,,,0.00,,2013-03-17 03:22:00,
2013-03-16 21:23:00,69.0,62.0,30.03,East,98,4.0,12.0,79,0.00,,,0.00,,2013-03-17 03:23:00,
2013-03-16 21:33:00,69.0,63.0,30.04,ESE,110,1.0,6.0,80,0.00,,,0.00,,2013-03-17 03:33:00,
2013-03-16 21:43:00,69.0,63.0,30.04,ESE,110,1.0,6.0,80,0.00,,,0.00,,2013-03-17 03:43:00,
2013-03-16 21:52:00,69.0,62.0,30.03,East,98,4.0,12.0,79,0.00,,,0.00,,2013-03-17 03:52:00,
2013-03-16 22:03:00,69.0,62.0,30.03,East,98,4.0,12.0,79,0.00,,,0.00,,2013-03-17 04:03:00,
2013-03-16 22:12:00,69.0,62.0,30.03,East,98,4.0,12.0,79,0.00,,,0.00,,2013-03-17 04:12:00,